Location: Unspecified
(48.8656°N, 0.0000°E)
Time: 17:42:03
(UTC+00:00)

Altair - All Passes

Search period start: 16 June 2019 00:00
Search period end: 26 June 2019 00:00
Orbit: 1501 x 1683 km, 47.2° (Epoch: 16 June)

Date Brightness Start Highest point End Pass type
(mag) Time Alt. Az. Time Alt. Az. Time Alt. Az.
16 Jun - 01:32:30 10° W 01:42:29 76° SSW 01:52:38 10° ESE visible
16 Jun - 03:37:19 10° WNW 03:46:38 44° SW 03:55:59 10° SSE daylight
16 Jun - 05:44:37 10° W 05:49:23 14° WSW 05:54:09 10° SSW daylight
16 Jun - 19:00:42 10° SSE 19:05:37 15° SE 19:10:37 10° E daylight
16 Jun - 20:59:22 10° SSW 21:08:20 46° SE 21:17:38 10° ENE visible
16 Jun - 23:02:41 10° WSW 23:12:29 78° SSE 23:22:35 10° E visible
17 Jun - 01:07:19 10° W 01:17:16 78° SSW 01:27:27 10° ESE visible
17 Jun - 03:12:06 10° WNW 03:21:30 47° SW 03:30:59 10° SE visible
17 Jun - 05:18:53 10° W 05:24:22 16° SW 05:29:52 10° SSW daylight
17 Jun - 18:36:33 10° SSE 18:40:39 13° ESE 18:44:48 10° E daylight
17 Jun - 20:34:25 10° SSW 20:43:14 43° SE 20:52:23 10° ENE visible
17 Jun - 22:37:33 10° WSW 22:47:17 76° SSE 22:57:22 10° E visible
18 Jun - 00:42:08 10° W 00:52:04 79° S 01:02:15 10° ESE visible
18 Jun - 02:46:53 10° WNW 02:56:22 49° SSW 03:05:58 10° SE visible
18 Jun - 04:53:17 10° W 04:59:21 18° SW 05:05:28 10° SSW daylight
18 Jun - 18:12:41 10° SE 18:15:40 12° ESE 18:18:42 10° ESE daylight
18 Jun - 20:09:29 10° SSW 20:18:09 41° SE 20:27:08 10° ENE daylight
18 Jun - 22:12:25 10° WSW 22:22:06 75° SSE 22:32:08 10° E visible
19 Jun - 00:16:57 10° W 00:26:52 80° S 00:37:02 10° ESE visible
19 Jun - 02:21:42 10° WNW 02:31:14 52° SSW 02:40:55 10° SE visible
19 Jun - 04:27:46 10° W 04:34:20 20° SW 04:40:56 10° S daylight
19 Jun - 17:49:58 10° SE 17:50:43 10° ESE 17:51:26 10° ESE daylight
19 Jun - 19:44:36 10° SSW 19:53:04 38° SE 20:01:51 10° ENE daylight
19 Jun - 21:47:18 10° WSW 21:56:55 73° SSE 22:06:55 10° E visible
19 Jun - 23:51:47 10° W 00:01:40 81° S 00:11:49 10° ESE visible
20 Jun - 01:56:30 10° WNW 02:06:06 54° SSW 02:15:51 10° SE visible
20 Jun - 04:02:19 10° W 04:09:18 22° SW 04:16:20 10° S daylight
20 Jun - 19:19:43 10° SSW 19:28:00 35° SE 19:36:35 10° ENE daylight
20 Jun - 21:22:12 10° WSW 21:31:45 71° SSE 21:41:41 10° E visible
20 Jun - 23:26:36 10° W 23:36:27 82° S 23:46:36 10° E visible
21 Jun - 01:31:18 10° WNW 01:40:57 57° SSW 01:50:47 10° SE visible
21 Jun - 03:36:54 10° W 03:44:16 24° SW 03:51:41 10° S daylight
21 Jun - 18:54:53 10° SSW 19:02:57 33° SE 19:11:17 10° ENE daylight
21 Jun - 20:57:06 10° WSW 21:06:35 68° SSE 21:16:28 10° E visible
21 Jun - 23:01:26 10° W 23:11:15 82° S 23:21:23 10° E visible
22 Jun - 01:06:07 10° WNW 01:15:48 59° SSW 01:25:41 10° SE visible
22 Jun - 03:11:32 10° W 03:19:13 26° SW 03:26:57 10° S visible
22 Jun - 18:30:05 10° SSW 18:37:54 31° SE 18:45:58 10° E daylight
22 Jun - 20:32:01 10° WSW 20:41:26 66° SSE 20:51:15 10° E visible
22 Jun - 22:36:17 10° W 22:46:03 83° S 22:56:10 10° E visible
23 Jun - 00:40:57 10° WNW 00:50:38 62° SSW 01:00:34 10° SE visible
23 Jun - 02:46:13 10° W 02:54:09 28° SW 03:02:11 10° S visible
23 Jun - 18:05:18 10° S 18:12:52 28° SE 18:20:39 10° E daylight
23 Jun - 20:06:56 10° SW 20:16:17 64° SSE 20:26:01 10° ENE daylight
23 Jun - 22:11:08 10° W 22:20:51 83° S 22:30:57 10° E visible
24 Jun - 00:15:46 10° WNW 00:25:28 64° SSW 00:35:26 10° SE visible
24 Jun - 02:20:55 10° W 02:29:05 30° SW 02:37:23 10° S visible
24 Jun - 17:40:34 10° S 17:47:51 26° SE 17:55:18 10° E daylight
24 Jun - 19:41:53 10° SW 19:51:09 61° SSE 20:00:48 10° ENE daylight
24 Jun - 21:45:58 10° W 21:55:39 83° S 22:05:43 10° E visible
24 Jun - 23:50:36 10° W 00:00:18 67° SSW 00:10:17 10° ESE visible
25 Jun - 01:55:38 10° W 02:04:01 32° SW 02:12:32 10° SSE visible
25 Jun - 17:15:53 10° S 17:22:50 24° SE 17:29:56 10° E daylight
25 Jun - 19:16:50 10° SW 19:26:01 58° SSE 19:35:35 10° ENE daylight
25 Jun - 21:20:49 10° W 21:30:27 82° S 21:40:29 10° E visible
25 Jun - 23:25:26 10° W 23:35:08 69° SSW 23:45:08 10° ESE visible
